Location: Mahannah Oil Field
(37.4664°N, 96.6003°W)
Time: 09:33:01
(UTC+00:00)

Courier 1B - Pass Details

Date: 27 January 2021
Orbit: 962 x 1209 km, 28.3° (Epoch: 02 March)

Event Time Altitude Azimuth Distance (km) Brightness Sun altitude
Rises 07:08:18 0° 258° (WSW) 3,734 - -69.9°
Reaches altitude 10° 07:11:14 10° 250° (WSW) 2,752 - -69.7°
Maximum altitude 07:17:11 36° 186° (S) 1,481 - -69.2°
Drops below altitude 10° 07:23:01 10° 121° (ESE) 2,685 - -68.6°
Sets 07:25:50 0° 113° (ESE) 3,631 - -68.3°
